Weather History for Orangeburg, SC

Change the Weather History Date:

Friday, December 21, 2012

  Actual Average Record
Temperature  
Mean Temperature 46 °F 46 °F  
Max Temperature 50 °F 57 °F 80 °F (1967)
Min Temperature 41 °F 36 °F 15 °F (1981)
Degree Days  
Heating Degree Days 19 19  
Month to date heating degree days 179 344  
Since 1 July heating degree days 629 713  
Cooling Degree Days 0 0  
Month to date cooling degree days 2 0  
Year to date cooling degree days 2322 2102  
Moisture  
Dew Point 23 °F    
Average Humidity 43    
Maximum Humidity 54    
Minimum Humidity 32    
Precipitation  
Precipitation 0.00 in 0.11 in 1.24 in (1977)
Month to date precipitation 1.85 2.36  
Year to date precipitation 40.15 45.77  
Sea Level Pressure  
Sea Level Pressure 29.88 in    
Wind  
Wind Speed 18 mph (West)    
Max Wind Speed 32 mph    
Max Gust Speed 43 mph    
Visibility 10 miles    
Events      
T = Trace of Precipitation, MM = Missing Value Source: NWS Daily Summary

Daily Weather History Graph

Daily Weather History Graph

Search for Another Location

Airport:

Trip Planner

Search our weather history database for the weather conditions in past years. The results will help you decide how hot, cold, wet, or windy it might be!

Date:

Astronomy

Dec. 21, 2012 Rise Set
Actual Time 7:23 AM EST 5:19 PM EST
Civil Twilight 6:56 AM EST 5:47 PM EST
Nautical Twilight 6:25 AM EST 6:18 PM EST
Astronomical Twilight 5:54 AM EST 6:48 PM EST
Moon 12:55 PM EST (12/21) 1:21 AM EST (12/21)
Length of Visible Light 10h 51m
Length of Day
9h 56m
Waxing Gibbous, 64% of the Moon is Illuminated
Dec 21
Waxing Gibbous
Dec 28
Full
Jan 4
Last Quarter
Jan 11
New
Jan 18
First Quarter

Hourly Weather History & Observations

Time (EST) Temp. Windchill Dew Point Humidity Pressure Visibility Wind Dir Wind Speed Gust Speed Precip Events Conditions
12:53 AM 46.9 °F - 28.9 °F 50% 29.81 in 10.0 mi West 19.6 mph 29.9 mph N/A   Clear
1:53 AM 46.9 °F - 28.9 °F 50% 29.81 in 10.0 mi West 16.1 mph 26.5 mph N/A   Clear
2:53 AM 45.0 °F 37.9 °F 28.9 °F 53% 29.81 in 10.0 mi West 16.1 mph 23.0 mph N/A   Partly Cloudy
3:53 AM 45.0 °F 37.4 °F 28.0 °F 52% 29.81 in 10.0 mi West 18.4 mph 27.6 mph N/A   Clear
4:53 AM 44.1 °F 37.7 °F 27.0 °F 51% 29.81 in 10.0 mi West 12.7 mph 23.0 mph N/A   Clear
5:53 AM 43.0 °F 36.0 °F 27.0 °F 53% 29.82 in 10.0 mi West 13.8 mph 21.9 mph N/A   Clear
6:53 AM 42.1 °F 33.1 °F 26.1 °F 53% 29.83 in 10.0 mi West 20.7 mph 26.5 mph N/A   Clear
7:53 AM 41.0 °F 32.5 °F 24.1 °F 51% 29.85 in 10.0 mi West 17.3 mph 25.3 mph N/A   Clear
8:53 AM 42.1 °F 33.1 °F 24.1 °F 49% 29.87 in 10.0 mi West 20.7 mph 38.0 mph N/A   Clear
9:53 AM 43.0 °F 34.0 °F 23.0 °F 45% 29.89 in 10.0 mi West 21.9 mph 31.1 mph N/A   Clear
10:53 AM 45.0 °F 37.1 °F 23.0 °F 42% 29.88 in 10.0 mi West 19.6 mph 38.0 mph N/A   Clear
11:53 AM 46.9 °F - 23.0 °F 39% 29.87 in 10.0 mi West 23.0 mph 33.4 mph N/A   Clear
12:53 PM 48.9 °F - 21.9 °F 35% 29.86 in 10.0 mi WNW 24.2 mph 36.8 mph N/A   Clear
1:53 PM 48.9 °F - 21.9 °F 35% 29.85 in 10.0 mi West 28.8 mph 40.3 mph N/A   Clear
2:53 PM 50.0 °F - 21.9 °F 33% 29.86 in 10.0 mi WNW 21.9 mph 31.1 mph N/A   Clear
3:53 PM 48.9 °F - 21.9 °F 35% 29.88 in 10.0 mi WNW 21.9 mph 35.7 mph N/A   Clear
4:53 PM 48.0 °F - 21.0 °F 34% 29.89 in 10.0 mi WNW 21.9 mph 31.1 mph N/A   Clear
5:53 PM 46.0 °F 40.2 °F 21.9 °F 39% 29.92 in 10.0 mi West 12.7 mph 19.6 mph N/A   Clear
6:53 PM 45.0 °F 38.5 °F 21.9 °F 40% 29.93 in 10.0 mi West 13.8 mph - N/A   Clear
7:53 PM 43.0 °F 36.8 °F 23.0 °F 45% 29.95 in 10.0 mi West 11.5 mph - N/A   Clear
8:53 PM 44.1 °F 37.1 °F 19.9 °F 38% 29.96 in 10.0 mi West 15.0 mph 24.2 mph N/A   Clear
9:53 PM 43.0 °F 35.7 °F 19.0 °F 38% 29.98 in 10.0 mi West 15.0 mph 21.9 mph N/A   Clear
10:53 PM 43.0 °F 35.4 °F 18.0 °F 37% 29.99 in 10.0 mi WNW 16.1 mph 26.5 mph N/A   Clear
11:53 PM 41.0 °F 35.2 °F 18.0 °F 40% 30.00 in 10.0 mi West 9.2 mph 21.9 mph N/A   Clear